FW4702 Weather Reports


Display with metric or nautical units.
time (UTC)temp
F
wind
direction
speed
MPH
gust
MPH
rain 1hr
in
rain 24hr
in
rain mn
in
humidity
%
barometer
mb
20260505183057 74 207 2.0 4.0 0.01 0.01 0.01 50 1014.0
20260505182557 74 227 1.0 6.0 0.01 0.01 0.01 53 1013.9
20260505182100 74 200 2.0 6.0 0.01 0.01 0.01 51 1013.9
20260505181558 74 191 2.0 6.0 0.01 0.01 0.01 48 1014.0
20260505181058 73 196 2.0 6.0 0.01 0.01 0.01 47 1014.1
20260505180556 74 238 2.0 5.0 0.00 0.00 0.00 48 1014.2
20260505180058 74 0 2.0 5.0 0.00 0.00 0.00 52 1014.1
20260505175556 74 220 2.0 6.0 0.00 0.00 0.00 51 1014.1
20260505175056 74 176 3.0 6.0 0.00 0.00 0.00 50 1014.0
20260505174555 74 157 2.0 5.0 0.00 0.00 0.00 48 1014.0
20260505174057 74 221 2.0 5.0 0.00 0.00 0.00 51 1014.0
20260505173557 74 202 1.0 5.0 0.00 0.00 0.00 52 1014.0
20260505173113 73 0 1.0 5.0 0.00 0.00 0.00 50 1014.1
20260505172555 73 227 3.0 5.0 0.00 0.00 0.00 48 1014.2
20260505172056 73 209 2.0 5.0 0.00 0.00 0.00 53 1014.2
20260505171622 73 214 3.0 5.0 0.00 0.00 0.00 49 1014.3
20260505171059 73 180 2.0 5.0 0.00 0.00 0.00 52 1014.4
20260505170557 73 261 3.0 5.0 0.00 0.00 0.00 49 1014.4
20260505170055 72 218 3.0 5.0 0.00 0.00 0.00 55 1014.5
20260505165557 72 255 1.0 5.0 0.00 0.00 0.00 56 1014.6
20260505165056 72 192 1.0 6.0 0.00 0.00 0.00 57 1014.6
20260505164601 72 220 2.0 6.0 0.00 0.00 0.00 58 1014.6
20260505164056 73 226 2.0 5.0 0.00 0.00 0.00 55 1014.7
20260505163556 73 184 1.0 3.0 0.00 0.00 0.00 59 1014.5
20260505163057 72 222 1.0 4.0 0.00 0.00 0.00 60 1014.5
20260505162556 72 185 1.0 5.0 0.00 0.00 0.00 63 1014.6
20260505162057 72 202 1.0 5.0 0.00 0.00 0.00 60 1014.6
20260505161605 71 146 2.0 5.0 0.00 0.00 0.00 61 1014.6
20260505161057 71 217 2.0 6.0 0.00 0.00 0.00 61 1014.5
20260505160558 71 212 1.0 6.0 0.00 0.00 0.00 62 1014.5
20260505153057 69 151 0.0 4.0 0.00 0.00 0.00 63 1014.4
20260505152557 69 146 1.0 4.0 0.00 0.00 0.00 61 1014.4
20260505152056 69 205 1.0 4.0 0.00 0.00 0.00 66 1014.3
20260505151559 69 176 1.0 4.0 0.00 0.00 0.00 64 1014.3
20260505151056 69 211 2.0 4.0 0.00 0.00 0.00 63 1014.4
20260505150556 69 0 1.0 3.0 0.00 0.00 0.00 67 1014.3
20260505150116 69 189 0.0 3.0 0.00 0.00 0.00 71 1014.3
20260505140556 64 109 1.0 4.0 0.00 0.00 0.00 74 1014.4
20260505130104 61 217 0.0 2.0 0.00 0.00 0.00 80 1014.6
20260505124558 59 0 0.0 1.0 0.00 0.00 0.00 84 1014.1
20260505124058 59 0 0.0 1.0 0.00 0.00 0.00 83 1014.1
20260505123558 59 0 0.0 1.0 0.00 0.00 0.00 84 1014.2
20260505123103 58 0 0.0 1.0 0.00 0.00 0.00 86 1014.2
20260505122556 57 0 0.0 1.0 0.00 0.00 0.00 89 1014.1
20260505122056 56 0 0.0 0.0 0.00 0.00 0.00 92 1014.1
20260505121622 55 0 0.0 0.0 0.00 0.00 0.00 94 1014.2
20260505121056 53 0 0.0 0.0 0.00 0.00 0.00 95 1014.1
20260505120555 53 0 0.0 0.0 0.00 0.00 0.00 95 1014.0
20260505115555 52 0 0.0 0.0 0.00 0.00 0.00 95 1014.2
20260505115055 52 0 0.0 0.0 0.00 0.00 0.00 94 1014.0
20260505114556 52 0 0.0 0.0 0.00 0.00 0.00 94 1013.8
20260505114055 52 0 0.0 0.0 0.00 0.00 0.00 95 1013.7
20260505113557 52 0 0.0 0.0 0.00 0.00 0.00 94 1013.5
20260505113059 52 0 0.0 0.0 0.00 0.00 0.00 95 1013.4
20260505112556 51 0 0.0 0.0 0.00 0.00 0.00 95 1013.4
20260505112056 51 0 0.0 0.0 0.00 0.00 0.00 94 1013.3
20260505111557 52 0 0.0 0.0 0.00 0.00 0.00 94 1013.3
20260505111100 52 0 0.0 0.0 0.00 0.00 0.00 94 1013.4
20260505110557 51 0 0.0 0.0 0.00 0.00 0.00 94 1013.3
20260505102055 53 0 0.0 0.0 0.00 0.00 0.00 92 1012.9
20260505101558 53 0 0.0 0.0 0.00 0.00 0.00 92 1012.8
20260505101054 53 0 0.0 0.0 0.00 0.00 0.00 91 1012.8
20260505100557 53 0 0.0 0.0 0.00 0.00 0.00 90 1012.7
20260505100135 54 0 0.0 0.0 0.00 0.00 0.00 89 1012.8
20260505095600 54 0 0.0 0.0 0.00 0.00 0.00 89 1012.7
20260505095056 54 0 0.0 0.0 0.00 0.00 0.00 89 1012.6
20260505094555 53 0 0.0 0.0 0.00 0.00 0.00 90 1012.5
20260505094056 53 0 0.0 0.0 0.00 0.00 0.00 91 1012.5
20260505093556 53 0 0.0 0.0 0.00 0.00 0.00 93 1012.6
20260505093056 52 0 0.0 0.0 0.00 0.00 0.00 93 1012.5
20260505092556 52 0 0.0 0.0 0.00 0.00 0.00 93 1012.4
20260505092055 52 0 0.0 0.0 0.00 0.00 0.00 93 1012.5
20260505091616 52 0 0.0 0.0 0.00 0.00 0.00 93 1012.6
20260505091055 52 0 0.0 0.0 0.00 0.00 0.00 93 1012.6
20260505090556 52 0 0.0 0.0 0.00 0.00 0.00 93 1012.7
20260505085553 52 0 0.0 0.0 0.00 0.00 0.00 93 1012.6
20260505085059 52 0 0.0 0.0 0.00 0.00 0.00 93 1012.5
20260505084555 52 0 0.0 0.0 0.00 0.00 0.00 93 1012.8
20260505084053 52 0 0.0 0.0 0.00 0.00 0.00 94 1012.7
20260505083559 52 0 0.0 0.0 0.00 0.00 0.00 94 1012.6
20260505083056 51 0 0.0 0.0 0.00 0.00 0.00 94 1012.6
20260505082555 51 0 0.0 0.0 0.00 0.00 0.00 94 1012.6
20260505082056 51 0 0.0 0.0 0.00 0.00 0.00 94 1012.7
20260505081555 51 0 0.0 0.0 0.00 0.00 0.00 94 1012.7
20260505081056 52 0 0.0 0.0 0.00 0.00 0.00 94 1012.7
20260505080558 52 0 0.0 0.0 0.00 0.00 0.00 94 1012.8
20260505080054 52 0 0.0 0.0 0.00 0.00 0.00 94 1012.8
20260505075556 52 0 0.0 0.0 0.00 0.00 0.00 94 1012.9
20260505075057 52 0 0.0 0.0 0.00 0.00 0.00 94 1013.0
20260505074557 52 0 0.0 0.0 0.00 0.00 0.00 93 1013.0
20260505074058 52 0 0.0 0.0 0.00 0.00 0.00 94 1013.1
20260505073556 52 0 0.0 0.0 0.00 0.00 0.00 93 1013.2
20260505073100 52 0 0.0 0.0 0.00 0.00 0.00 93 1013.3
20260505072555 52 0 0.0 0.0 0.00 0.00 0.00 93 1013.3
20260505072056 52 0 0.0 0.0 0.00 0.00 0.00 93 1013.2
20260505071555 52 0 0.0 0.0 0.00 0.00 0.00 93 1013.2
20260505071055 52 0 0.0 0.0 0.00 0.00 0.00 93 1013.2
20260505070556 52 0 0.0 0.0 0.00 0.00 0.00 93 1013.2
20260505070057 53 0 0.0 0.0 0.00 0.00 0.00 93 1013.2
20260505065557 53 0 0.0 0.0 0.00 0.00 0.00 93 1013.3
20260505065057 53 0 0.0 0.0 0.00 0.00 0.00 92 1013.2
20260505064604 53 0 0.0 0.0 0.00 0.00 0.00 92 1013.3
20260505064056 53 0 0.0 0.0 0.00 0.00 0.00 92 1013.3
20260505063557 53 0 0.0 0.0 0.00 0.00 0.00 92 1013.3
20260505063056 53 0 0.0 0.0 0.00 0.00 0.00 92 1013.3
20260505062556 53 0 0.0 0.0 0.00 0.00 0.00 91 1013.4
20260505062056 54 0 0.0 0.0 0.00 0.00 0.00 91 1013.4
20260505061554 54 0 0.0 0.0 0.00 0.00 0.00 91 1013.5
20260505061056 54 0 0.0 0.0 0.00 0.00 0.00 91 1013.5
20260505060559 54 0 0.0 0.0 0.00 0.00 0.00 91 1013.6
20260505060057 54 0 0.0 0.0 0.00 0.00 0.00 90 1013.6
20260505055556 54 0 0.0 0.0 0.00 0.00 0.00 90 1013.5
20260505055056 54 0 0.0 0.0 0.00 0.00 0.00 90 1013.6
20260505054620 54 0 0.0 0.0 0.00 0.00 0.00 90 1013.6
20260505054058 54 0 0.0 0.0 0.00 0.00 0.00 90 1013.6
20260505053555 54 0 0.0 0.0 0.00 0.00 0.00 90 1013.6
20260505053056 54 0 0.0 0.0 0.00 0.00 0.00 89 1013.6
20260505052555 55 0 0.0 0.0 0.00 0.00 0.00 88 1013.6
20260505052055 55 0 0.0 0.0 0.00 0.00 0.00 89 1013.7
20260505051555 55 0 0.0 0.0 0.00 0.00 0.00 89 1013.7
20260505051057 55 0 0.0 0.0 0.00 0.00 0.00 89 1013.7
20260505050558 55 0 0.0 0.0 0.00 0.00 0.00 88 1013.7
20260505041608 56 0 0.0 0.0 0.00 0.00 0.00 86 1013.6
20260505041057 56 0 0.0 0.0 0.00 0.00 0.00 86 1013.6
20260505040556 57 0 0.0 0.0 0.00 0.00 0.00 86 1013.6
20260505040055 57 0 0.0 0.0 0.00 0.00 0.00 85 1013.5
20260505035556 57 0 0.0 0.0 0.00 0.00 0.00 85 1013.5
20260505035056 57 0 0.0 0.0 0.00 0.00 0.00 85 1013.6
20260505034556 57 0 0.0 0.0 0.00 0.00 0.00 85 1013.6
20260505034056 57 0 0.0 0.0 0.00 0.00 0.00 84 1013.6
20260505033556 58 0 0.0 0.0 0.00 0.00 0.00 84 1013.6
20260505033056 58 0 0.0 0.0 0.00 0.00 0.00 84 1013.6
20260505032555 58 0 0.0 0.0 0.00 0.00 0.00 84 1013.6
20260505032055 58 0 0.0 0.0 0.00 0.00 0.00 81 1013.7
20260505031555 59 0 0.0 0.0 0.00 0.00 0.00 82 1013.7
20260505031056 59 0 0.0 0.0 0.00 0.00 0.00 81 1013.8
20260505030557 59 0 0.0 0.0 0.00 0.00 0.00 80 1013.7
20260505030108 60 0 0.0 0.0 0.00 0.00 0.00 79 1013.7
20260505025556 58 0 0.0 0.0 0.00 0.00 0.00 82 1013.7
20260505025059 59 0 0.0 0.0 0.00 0.00 0.00 81 1013.7
20260505024602 59 0 0.0 0.0 0.00 0.00 0.00 80 1013.7
20260505024056 60 0 0.0 0.0 0.00 0.00 0.00 77 1013.6
20260505023556 60 0 0.0 0.0 0.00 0.00 0.00 79 1013.7
20260505023109 59 0 0.0 0.0 0.00 0.00 0.00 81 1013.7
20260505022559 60 0 0.0 0.0 0.00 0.00 0.00 82 1013.6
20260505022057 60 0 0.0 0.0 0.00 0.00 0.00 81 1013.6
20260505021600 60 0 0.0 0.0 0.00 0.00 0.00 81 1013.5
20260505021056 60 0 0.0 0.0 0.00 0.00 0.00 80 1013.4
20260505020556 61 0 0.0 0.0 0.00 0.00 0.00 79 1013.4
20260505020103 61 0 0.0 0.0 0.00 0.00 0.00 79 1013.3
20260505015556 61 0 0.0 0.0 0.00 0.00 0.00 76 1013.2
20260505015056 61 0 0.0 0.0 0.00 0.00 0.00 78 1013.2
20260505014557 62 0 0.0 0.0 0.00 0.00 0.00 78 1013.1
20260505014100 62 0 0.0 0.0 0.00 0.00 0.00 74 1013.0
20260505013555 62 0 0.0 0.0 0.00 0.00 0.00 75 1013.0
20260505013056 62 0 0.0 0.0 0.00 0.00 0.00 75 1013.0
20260505012555 63 0 0.0 0.0 0.00 0.00 0.00 75 1013.0
20260505012056 64 0 0.0 0.0 0.00 0.00 0.00 75 1013.0
20260505011555 64 0 0.0 0.0 0.00 0.00 0.00 73 1013.0
20260505011056 65 0 0.0 0.0 0.00 0.00 0.00 72 1013.1
20260505010558 66 0 0.0 0.0 0.00 0.00 0.00 68 1012.9
20260505010112 67 0 0.0 0.0 0.00 0.00 0.00 63 1012.9
20260505005556 67 0 0.0 1.0 0.00 0.00 0.00 61 1013.0
20260505005056 68 0 0.0 1.0 0.00 0.00 0.00 66 1012.9
20260505004558 69 0 0.0 1.0 0.00 0.00 0.00 61 1012.9
20260505004055 70 0 0.0 1.0 0.00 0.00 0.00 54 1012.8
20260505003555 70 0 0.0 1.0 0.00 0.00 0.00 54 1012.8
20260505003055 70 0 0.0 2.0 0.00 0.00 0.00 53 1012.8
20260505002555 71 0 0.0 2.0 0.00 0.00 0.00 53 1012.8
20260505002057 72 193 0.0 2.0 0.00 0.00 0.00 51 1012.8
20260505001554 72 174 0.0 2.0 0.00 0.00 0.00 50 1012.7
20260505001056 72 0 0.0 2.0 0.00 0.00 0.00 49 1012.7
20260505000556 72 191 0.0 5.0 0.00 0.00 0.00 50 1012.7
20260505000101 72 169 0.0 5.0 0.00 0.00 0.00 49 1012.7
20260504235556 73 142 0.0 3.0 0.00 0.00 0.00 49 1012.7
20260504235056 73 180 1.0 4.0 0.00 0.00 0.00 48 1012.6
20260504234554 73 186 1.0 5.0 0.00 0.00 0.00 48 1012.7
20260504234056 74 198 2.0 5.0 0.00 0.00 0.00 47 1012.7
20260504233600 74 214 1.0 5.0 0.00 0.00 0.00 48 1012.6
20260504233100 74 0 1.0 5.0 0.00 0.00 0.00 49 1012.6
20260504232556 74 186 1.0 7.0 0.00 0.00 0.00 48 1012.7
20260504232055 74 220 1.0 7.0 0.00 0.00 0.00 49 1012.7
20260504231555 74 189 2.0 7.0 0.00 0.00 0.00 47 1012.7
20260504231055 74 187 2.0 6.0 0.00 0.00 0.00 47 1012.7
20260504230555 74 192 2.0 6.0 0.00 0.00 0.00 46 1012.7
20260504230116 74 200 2.0 6.0 0.00 0.00 0.00 46 1012.7
20260504225557 75 0 2.0 6.0 0.00 0.00 0.00 45 1012.7
20260504225101 75 186 2.0 7.0 0.00 0.00 0.00 45 1012.7
20260504224621 75 190 2.0 7.0 0.00 0.00 0.00 44 1012.8
20260504224056 75 213 3.0 6.0 0.00 0.00 0.00 44 1012.8
20260504223556 75 202 2.0 6.0 0.00 0.00 0.00 46 1012.8
20260504223055 75 211 1.0 4.0 0.00 0.00 0.00 48 1012.9
20260504222556 75 196 1.0 5.0 0.00 0.00 0.00 46 1012.9
20260504222055 75 200 1.0 8.0 0.00 0.00 0.00 45 1012.9
20260504221559 75 213 3.0 8.0 0.00 0.00 0.00 46 1013.0
20260504221055 75 205 3.0 7.0 0.00 0.00 0.00 43 1013.0
20260504220556 76 204 2.0 7.0 0.00 0.00 0.00 42 1013.0
20260504220106 76 234 2.0 6.0 0.00 0.00 0.00 43 1013.0
20260504215556 76 192 2.0 5.0 0.00 0.00 0.00 47 1013.0
20260504215056 76 193 2.0 5.0 0.00 0.00 0.00 46 1012.9
20260504214559 75 166 1.0 5.0 0.00 0.00 0.00 48 1012.9
20260504214100 75 185 1.0 4.0 0.00 0.00 0.00 47 1013.0
20260504213556 75 223 2.0 6.0 0.00 0.00 0.00 47 1012.9
20260504213103 75 205 3.0 7.0 0.00 0.00 0.00 46 1013.1
20260504212559 75 0 2.0 7.0 0.00 0.00 0.00 45 1013.0
20260504212059 75 225 1.0 5.0 0.00 0.00 0.00 47 1013.0
20260504211602 76 179 3.0 5.0 0.00 0.00 0.00 49 1013.0
20260504211056 76 247 1.0 6.0 0.00 0.00 0.00 48 1013.1
20260504210559 76 191 2.0 6.0 0.00 0.00 0.00 46 1013.2
20260504210104 76 153 1.0 6.0 0.00 0.00 0.00 48 1013.3
20260504205556 76 191 3.0 6.0 0.00 0.00 0.00 45 1013.3
20260504205053 77 203 2.0 5.0 0.00 0.00 0.00 50 1013.3
20260504204556 76 200 3.0 5.0 0.00 0.00 0.00 50 1013.2
20260504204059 76 225 2.0 5.0 0.00 0.00 0.00 51 1013.3
20260504203556 77 211 2.0 5.0 0.00 0.00 0.00 51 1013.3
20260504203055 77 190 2.0 5.0 0.00 0.00 0.00 48 1013.4
20260504202556 76 221 2.0 5.0 0.00 0.00 0.00 50 1013.4
20260504202058 75 181 1.0 5.0 0.00 0.00 0.00 48 1013.5
20260504201607 75 211 2.0 5.0 0.00 0.00 0.00 48 1013.6
20260504201056 75 211 2.0 5.0 0.00 0.00 0.00 50 1013.6
20260504200556 75 0 0.0 6.0 0.00 0.00 0.00 52 1013.7
20260504200103 75 219 2.0 6.0 0.00 0.00 0.00 48 1013.7
20260504195555 76 248 2.0 6.0 0.00 0.00 0.00 51 1013.8
20260504195055 77 182 3.0 6.0 0.00 0.00 0.00 52 1013.8
20260504194556 77 175 1.0 5.0 0.00 0.00 0.00 53 1013.8
20260504194057 77 160 2.0 6.0 0.00 0.00 0.00 52 1013.9
20260504193557 77 221 1.0 6.0 0.00 0.00 0.00 52 1014.0
20260504193055 76 190 3.0 6.0 0.00 0.00 0.00 53 1014.0
20260504192557 76 0 1.0 4.0 0.00 0.00 0.00 52 1014.1
20260504192058 76 188 2.0 4.0 0.00 0.00 0.00 53 1014.0
20260504191609 76 0 2.0 6.0 0.00 0.00 0.00 51 1014.1
20260504191056 76 229 2.0 6.0 0.00 0.00 0.00 52 1014.3
20260504190559 75 213 2.0 6.0 0.00 0.00 0.00 54 1014.4
20260504190055 75 0 1.0 7.0 0.00 0.00 0.00 56 1014.5
20260504185555 75 200 2.0 7.0 0.00 0.00 0.00 50 1014.5
20260504185055 75 169 1.0 4.0 0.00 0.00 0.00 52 1014.5
20260504184556 75 196 0.0 6.0 0.00 0.00 0.00 54 1014.7
20260504184056 75 180 2.0 6.0 0.00 0.00 0.00 51 1014.7
20260504183556 75 199 2.0 4.0 0.00 0.00 0.00 53 1014.8